| time (UTC) | temp F | wind direction | speed MPH | gust MPH | rain 1hr in | rain 24hr in | rain mn in | humidity % | barometer mb |
| 20260831134513 | 49 | 288 | 0.0 | 0.0 | 0.00 | 0.00 | 0.00 | 89 | 1011.1 |
| 20260831133013 | 49 | 288 | 0.0 | 0.0 | 0.00 | 0.00 | 0.00 | 89 | 1011.1 |
| 20260831131512 | 49 | 288 | 0.0 | 0.0 | 0.00 | 0.00 | 0.00 | 89 | 1011.1 |
| 20260831130013 | 49 | 288 | 0.0 | 0.0 | 0.00 | 0.00 | 0.00 | 89 | 1011.2 |
| 20260831124510 | 49 | 288 | 0.0 | 0.0 | 0.00 | 0.00 | 0.00 | 89 | 1011.1 |
| 20260831123008 | 48 | 288 | 0.0 | 0.0 | 0.00 | 0.00 | 0.00 | 88 | 1010.9 |
| 20260831121508 | 48 | 288 | 0.0 | 0.0 | 0.00 | 0.00 | 0.00 | 88 | 1010.7 |
| 20260831120014 | 49 | 288 | 0.0 | 0.0 | 0.00 | 0.00 | 0.00 | 88 | 1010.9 |
| 20260831114515 | 49 | 288 | 0.0 | 0.0 | 0.00 | 0.00 | 0.00 | 88 | 1010.8 |
| 20260831113004 | 49 | 288 | 0.0 | 0.0 | 0.00 | 0.00 | 0.00 | 87 | 1010.8 |
| 20260831111501 | 50 | 288 | 0.0 | 0.0 | 0.00 | 0.00 | 0.00 | 88 | 1010.8 |
| 20260831110100 | 50 | 288 | 0.0 | 0.0 | 0.00 | 0.00 | 0.00 | 88 | 1010.7 |
| 20260831104559 | 51 | 288 | 0.0 | 0.0 | 0.00 | 0.00 | 0.00 | 88 | 1010.7 |
| 20260831103056 | 51 | 288 | 0.0 | 0.0 | 0.00 | 0.00 | 0.00 | 88 | 1010.6 |
| 20260831101555 | 52 | 288 | 0.0 | 0.0 | 0.00 | 0.00 | 0.00 | 88 | 1010.6 |
| 20260831094552 | 52 | 305 | 0.0 | 0.0 | 0.00 | 0.00 | 0.00 | 87 | 1010.6 |
| 20260831093052 | 52 | 305 | 0.0 | 0.0 | 0.00 | 0.00 | 0.00 | 87 | 1010.8 |
| 20260831091550 | 52 | 305 | 0.0 | 0.0 | 0.00 | 0.00 | 0.00 | 87 | 1010.8 |
| 20260831090050 | 52 | 305 | 0.0 | 0.0 | 0.00 | 0.00 | 0.00 | 87 | 1010.7 |
| 20260831084554 | 53 | 299 | 0.0 | 0.0 | 0.00 | 0.00 | 0.00 | 87 | 1010.7 |
| 20260831083046 | 53 | 213 | 0.0 | 0.0 | 0.00 | 0.00 | 0.00 | 86 | 1010.8 |
| 20260831081545 | 53 | 304 | 0.0 | 0.0 | 0.00 | 0.00 | 0.00 | 85 | 1010.9 |
| 20260831080043 | 53 | 279 | 0.0 | 0.0 | 0.00 | 0.00 | 0.00 | 84 | 1010.9 |
| 20260831074542 | 53 | 234 | 0.0 | 0.0 | 0.00 | 0.00 | 0.00 | 83 | 1011.0 |
| 20260831073040 | 53 | 277 | 0.0 | 0.0 | 0.00 | 0.00 | 0.00 | 82 | 1011.0 |
| 20260831071538 | 53 | 259 | 0.0 | 0.0 | 0.00 | 0.00 | 0.00 | 80 | 1011.0 |
| 20260831070038 | 54 | 325 | 0.0 | 0.0 | 0.00 | 0.00 | 0.00 | 78 | 1011.0 |
| 20260831064537 | 54 | 325 | 0.0 | 0.0 | 0.00 | 0.00 | 0.00 | 77 | 1011.0 |
| 20260831063035 | 54 | 325 | 0.0 | 0.0 | 0.00 | 0.00 | 0.00 | 77 | 1010.8 |
| 20260831061535 | 55 | 325 | 0.0 | 0.0 | 0.00 | 0.00 | 0.00 | 77 | 1010.9 |
| 20260831060033 | 56 | 325 | 0.0 | 0.0 | 0.00 | 0.00 | 0.00 | 77 | 1010.8 |
| 20260831054534 | 56 | 298 | 0.0 | 0.0 | 0.00 | 0.00 | 0.00 | 77 | 1010.7 |
| 20260831053034 | 56 | 233 | 0.0 | 4.0 | 0.00 | 0.00 | 0.00 | 75 | 1010.7 |
| 20260831051533 | 57 | 319 | 0.0 | 0.0 | 0.00 | 0.00 | 0.00 | 73 | 1010.8 |
| 20260831050032 | 57 | 250 | 0.0 | 3.0 | 0.00 | 0.00 | 0.00 | 73 | 1010.8 |
| 20260831044532 | 58 | 241 | 0.0 | 1.0 | 0.00 | 0.00 | 0.00 | 69 | 1010.7 |
| 20260831043031 | 59 | 240 | 0.0 | 0.0 | 0.00 | 0.00 | 0.00 | 66 | 1010.8 |
| 20260831041531 | 60 | 289 | 0.0 | 0.0 | 0.00 | 0.00 | 0.00 | 62 | 1010.6 |
| 20260831040033 | 61 | 219 | 0.0 | 0.0 | 0.00 | 0.00 | 0.00 | 59 | 1010.4 |
| 20260831034534 | 62 | 322 | 0.0 | 0.0 | 0.00 | 0.00 | 0.00 | 54 | 1010.2 |
| 20260831033036 | 63 | 248 | 0.0 | 0.0 | 0.00 | 0.00 | 0.00 | 52 | 1009.8 |
| 20260831031530 | 63 | 213 | 0.0 | 0.0 | 0.00 | 0.00 | 0.00 | 52 | 1009.6 |
| 20260831030029 | 64 | 132 | 0.0 | 0.0 | 0.00 | 0.00 | 0.00 | 51 | 1009.5 |
| 20260831024528 | 65 | 217 | 0.0 | 0.0 | 0.00 | 0.00 | 0.00 | 47 | 1009.3 |
| 20260831023028 | 66 | 234 | 0.0 | 0.0 | 0.00 | 0.00 | 0.00 | 47 | 1009.2 |
| 20260831021527 | 68 | 223 | 0.0 | 0.0 | 0.00 | 0.00 | 0.00 | 47 | 1009.1 |
| 20260831020027 | 69 | 360 | 0.0 | 1.0 | 0.00 | 0.00 | 0.00 | 45 | 1009.2 |
| 20260831014526 | 71 | 355 | 0.0 | 0.0 | 0.00 | 0.00 | 0.00 | 40 | 1009.1 |
| 20260831013026 | 72 | 23 | 0.0 | 0.0 | 0.00 | 0.00 | 0.00 | 41 | 1009.2 |
| 20260831011525 | 72 | 307 | 0.0 | 4.0 | 0.00 | 0.00 | 0.00 | 39 | 1009.1 |
| 20260831010025 | 72 | 24 | 0.0 | 4.0 | 0.00 | 0.00 | 0.00 | 40 | 1009.2 |
| 20260831004525 | 73 | 291 | 0.0 | 5.0 | 0.00 | 0.00 | 0.00 | 40 | 1009.0 |
| 20260831003024 | 74 | 205 | 0.0 | 4.0 | 0.00 | 0.00 | 0.00 | 35 | 1008.8 |
| 20260831001624 | 74 | 217 | 1.0 | 9.0 | 0.00 | 0.00 | 0.00 | 31 | 1009.0 |
| 20260831000023 | 75 | 244 | 1.0 | 9.0 | 0.00 | 0.00 | 0.00 | 36 | 1009.0 |
| 20260830234529 | 75 | 223 | 2.0 | 10.0 | 0.00 | 0.00 | 0.00 | 35 | 1009.0 |
| 20260830233021 | 75 | 244 | 4.0 | 15.0 | 0.00 | 0.00 | 0.00 | 37 | 1009.0 |
| 20260830231519 | 75 | 272 | 1.0 | 12.0 | 0.00 | 0.00 | 0.00 | 39 | 1009.2 |
| 20260830230018 | 76 | 279 | 3.0 | 12.0 | 0.00 | 0.00 | 0.00 | 41 | 1009.2 |
| 20260830224517 | 77 | 183 | 5.0 | 15.0 | 0.00 | 0.00 | 0.00 | 38 | 1009.3 |
| 20260830223015 | 78 | 245 | 2.0 | 8.0 | 0.00 | 0.00 | 0.00 | 36 | 1009.4 |
| 20260830221513 | 78 | 217 | 3.0 | 11.0 | 0.00 | 0.00 | 0.00 | 39 | 1009.7 |
| 20260830220018 | 79 | 221 | 2.0 | 9.0 | 0.00 | 0.00 | 0.00 | 40 | 1009.8 |
| 20260830214510 | 80 | 215 | 3.0 | 9.0 | 0.00 | 0.00 | 0.00 | 38 | 1009.9 |
| 20260830213012 | 80 | 243 | 3.0 | 10.0 | 0.00 | 0.00 | 0.00 | 39 | 1010.1 |
| 20260830211510 | 82 | 191 | 2.0 | 7.0 | 0.00 | 0.00 | 0.00 | 37 | 1010.0 |
| 20260830210010 | 84 | 221 | 0.0 | 5.0 | 0.00 | 0.00 | 0.00 | 35 | 1010.1 |
| 20260830204507 | 83 | 228 | 0.0 | 7.0 | 0.00 | 0.00 | 0.00 | 35 | 1010.1 |
| 20260830203015 | 84 | 225 | 1.0 | 6.0 | 0.00 | 0.00 | 0.00 | 35 | 1010.2 |
| 20260830201506 | 85 | 215 | 1.0 | 6.0 | 0.00 | 0.00 | 0.00 | 33 | 1010.2 |
| 20260830200004 | 85 | 235 | 0.0 | 7.0 | 0.00 | 0.00 | 0.00 | 33 | 1010.3 |
| 20260830194502 | 86 | 238 | 1.0 | 6.0 | 0.00 | 0.00 | 0.00 | 32 | 1010.4 |
| 20260830193127 | 83 | 117 | 0.0 | 3.0 | 0.00 | 0.00 | 0.00 | 27 | 1010.6 |
| 20260830191554 | 82 | 184 | 0.0 | 3.0 | 0.00 | 0.00 | 0.00 | 27 | 1010.8 |
| 20260830190050 | 79 | 355 | 0.0 | 3.0 | 0.00 | 0.00 | 0.00 | 26 | 1011.1 |
| 20260830184545 | 77 | 236 | 0.0 | 5.0 | 0.00 | 0.00 | 0.00 | 28 | 1011.3 |
| 20260830183041 | 76 | 76 | 0.0 | 6.0 | 0.00 | 0.00 | 0.00 | 29 | 1011.6 |
| 20260830181538 | 75 | 5 | 0.0 | 5.0 | 0.00 | 0.00 | 0.00 | 34 | 1011.7 |
| 20260830180038 | 74 | 88 | 0.0 | 3.0 | 0.00 | 0.00 | 0.00 | 36 | 1011.7 |
| 20260830174534 | 72 | 119 | 0.0 | 1.0 | 0.00 | 0.00 | 0.00 | 44 | 1011.8 |
| 20260830173040 | 70 | 86 | 0.0 | 3.0 | 0.00 | 0.00 | 0.00 | 47 | 1011.7 |
| 20260830171521 | 69 | 124 | 0.0 | 3.0 | 0.00 | 0.00 | 0.00 | 52 | 1011.8 |
| 20260830170016 | 67 | 95 | 0.0 | 3.0 | 0.00 | 0.00 | 0.00 | 56 | 1011.9 |
| 20260830164511 | 65 | 80 | 0.0 | 3.0 | 0.00 | 0.00 | 0.00 | 60 | 1011.9 |
| 20260830163015 | 64 | 101 | 0.0 | 2.0 | 0.00 | 0.00 | 0.00 | 63 | 1012.0 |
| 20260830161504 | 62 | 344 | 0.0 | 2.0 | 0.00 | 0.00 | 0.00 | 67 | 1012.1 |
| 20260830160100 | 60 | 34 | 0.0 | 4.0 | 0.00 | 0.00 | 0.00 | 70 | 1012.1 |
| 20260830154557 | 59 | 58 | 0.0 | 0.0 | 0.00 | 0.00 | 0.00 | 74 | 1012.2 |
| 20260830153054 | 57 | 331 | 0.0 | 0.0 | 0.00 | 0.00 | 0.00 | 76 | 1012.3 |
| 20260830151551 | 55 | 216 | 0.0 | 0.0 | 0.00 | 0.00 | 0.00 | 72 | 1012.3 |
| 20260830150054 | 53 | 105 | 0.0 | 0.0 | 0.00 | 0.00 | 0.00 | 74 | 1012.2 |
| 20260830144551 | 51 | 286 | 0.0 | 0.0 | 0.00 | 0.00 | 0.00 | 79 | 1012.2 |
| 20260830143043 | 50 | 286 | 0.0 | 0.0 | 0.00 | 0.00 | 0.00 | 78 | 1012.1 |
| 20260830141538 | 49 | 261 | 0.0 | 0.0 | 0.00 | 0.00 | 0.00 | 77 | 1011.9 |
| 20260830140034 | 49 | 261 | 0.0 | 0.0 | 0.00 | 0.00 | 0.00 | 75 | 1011.8 |